Weather History for KMIV - October, 2013

Change the Weather History Date:

Saturday, October 5, 2013

  Actual Average Record
Temperature  
Mean Temperature 72 °F -  
Max Temperature 86 °F 71 °F 87 °F (1967)
Min Temperature 60 °F 49 °F 33 °F (1996)
Cooling Degree Days 7    
Growing Degree Days 22 (Base 50)    
Moisture  
Dew Point 64 °F    
Average Humidity 86    
Maximum Humidity 100    
Minimum Humidity 53    
Precipitation  
Precipitation 0.00 in - - ()
Sea Level Pressure  
Sea Level Pressure 30.05 in    
Wind  
Wind Speed 2 mph (ESE)    
Max Wind Speed 10 mph    
Max Gust Speed -    
Visibility 6 miles    
Events      
Averages and records for this station are not official NWS values.
T = Trace of Precipitation, MM = Missing Value Source: NWS Daily Summary

Daily Weather History Graph

Daily Weather History Graph

Search for Another Location

Airport or City:

Trip Planner

Search our weather history database for the weather conditions in past years. The results will help you decide how hot, cold, wet, or windy it might be!

Date:

Astronomy

Oct. 05, 2013 Rise Set
Actual Time 7:00 AM EDT 6:36 PM EDT
Civil Twilight 6:33 AM EDT 7:02 PM EDT
Nautical Twilight 6:02 AM EDT 7:33 PM EDT
Astronomical Twilight 5:31 AM EDT 8:05 PM EDT
Moon 7:36 AM EDT (10/5) 6:54 PM EDT (10/5)
Length of Visible Light 12h 29m
Length of Day
11h 35m
New Moon, 0% of the Moon is Illuminated
Oct 5
New Moon
Oct 11
First Quarter
Oct 18
Full
Oct 26
Last Quarter
Nov 3
New

Hourly Weather History & Observations

Time (EDT) Temp. Heat Index Dew Point Humidity Pressure Visibility Wind Dir Wind Speed Gust Speed Precip Events Conditions
12:54 AM 62.1 °F - 61.0 °F 96% 30.04 in 5.0 mi Calm Calm - N/A   Clear
1:54 AM 62.1 °F - 61.0 °F 96% 30.04 in 5.0 mi Calm Calm - N/A   Clear
2:54 AM 62.1 °F - 61.0 °F 96% 30.03 in 5.0 mi Calm Calm - N/A   Clear
3:54 AM 63.0 °F - 62.1 °F 97% 30.04 in 7.0 mi Calm Calm - N/A   Overcast
4:54 AM 61.0 °F - 60.1 °F 97% 30.04 in 4.0 mi Calm Calm - N/A   Clear
5:28 AM 60.8 °F - 60.8 °F 100% 30.04 in 2.5 mi Calm Calm - N/A   Clear
5:35 AM 60.8 °F - 60.8 °F 100% 30.05 in 4.0 mi Calm Calm - N/A   Clear
5:54 AM 61.0 °F - 60.1 °F 97% 30.05 in 4.0 mi Calm Calm - N/A   Clear
6:54 AM 61.0 °F - 60.1 °F 97% 30.05 in 4.0 mi Calm Calm - N/A   Clear
7:35 AM 62.6 °F - 60.8 °F 94% 30.06 in 2.5 mi Calm Calm - N/A   Clear
7:44 AM 62.6 °F - 62.6 °F 100% 30.06 in 4.0 mi Calm Calm - N/A   Clear
7:54 AM 64.0 °F - 62.1 °F 93% 30.06 in 5.0 mi Calm Calm - N/A   Clear
8:54 AM 71.1 °F - 66.9 °F 87% 30.07 in 6.0 mi Calm Calm - N/A   Partly Cloudy
9:54 AM 77.0 °F - 66.9 °F 71% 30.07 in 9.0 mi NNW 3.5 mph - N/A   Overcast
10:54 AM 78.1 °F - 66.9 °F 68% 30.08 in 10.0 mi West 3.5 mph - N/A   Mostly Cloudy
11:54 AM 82.0 °F 84.9 °F 68.0 °F 62% 30.07 in 10.0 mi Calm Calm - N/A   Partly Cloudy
12:54 PM 84.0 °F 86.5 °F 66.9 °F 56% 30.05 in 10.0 mi NW 4.6 mph - N/A   Partly Cloudy
1:54 PM 84.9 °F 87.1 °F 66.0 °F 53% 30.02 in 10.0 mi Variable 4.6 mph - N/A   Partly Cloudy
2:54 PM 82.9 °F 85.0 °F 66.0 °F 56% 30.02 in 10.0 mi Calm Calm - N/A   Scattered Clouds
3:54 PM 84.9 °F 87.6 °F 66.9 °F 55% 30.01 in 10.0 mi Calm Calm - N/A   Clear
4:54 PM 84.0 °F 86.5 °F 66.9 °F 56% 30.02 in 10.0 mi Variable 5.8 mph - N/A   Partly Cloudy
5:54 PM 75.9 °F - 68.0 °F 76% 30.02 in 10.0 mi SE 10.4 mph - N/A   Clear
6:54 PM 70.0 °F - 66.0 °F 87% 30.04 in 8.0 mi SE 8.1 mph - N/A   Clear
7:25 PM 68.0 °F - 66.2 °F 94% 30.05 in 7.0 mi SE 8.1 mph - N/A   Scattered Clouds
7:34 PM 68.0 °F - 66.2 °F 94% 30.05 in 6.0 mi SE 8.1 mph - N/A   Mostly Cloudy
7:54 PM 68.0 °F - 66.0 °F 93% 30.05 in 6.0 mi SE 9.2 mph - N/A   Overcast
8:54 PM 66.9 °F - 66.0 °F 97% 30.06 in 5.0 mi East 9.2 mph - N/A   Overcast
9:54 PM 66.9 °F - 66.0 °F 97% 30.06 in 4.0 mi ESE 8.1 mph - N/A   Overcast
10:54 PM 66.9 °F - 66.0 °F 97% 30.07 in 4.0 mi ESE 8.1 mph - N/A   Overcast
11:47 PM 66.2 °F - 66.2 °F 100% 30.07 in 4.0 mi ESE 8.1 mph - N/A   Overcast
11:54 PM 66.9 °F - 66.0 °F 97% 30.06 in 3.0 mi ESE 6.9 mph - N/A   Overcast